Weather History for Nellis AFB, NV

Change the Weather History Date:

Friday, July 4, 2014

  Actual Average Record
Temperature  
Mean Temperature 92 °F -  
Max Temperature 101 °F 102 °F 118 °F (1996)
Min Temperature 84 °F 75 °F 71 °F (2004)
Cooling Degree Days 28    
Growing Degree Days 42 (Base 50)    
Moisture  
Dew Point 59 °F    
Average Humidity 35    
Maximum Humidity 55    
Minimum Humidity 18    
Precipitation  
Precipitation 0.11 in - - ()
Sea Level Pressure  
Sea Level Pressure 29.91 in    
Wind  
Wind Speed 17 mph (SSE)    
Max Wind Speed 37 mph    
Max Gust Speed 50 mph    
Visibility 9 miles    
Events Rain , Thunderstorm    
Averages and records for this station are not official NWS values.
T = Trace of Precipitation, MM = Missing Value Source: NWS Daily Summary

Daily Weather History Graph

Daily Weather History Graph

Search for Another Location

Airport:

Trip Planner

Search our weather history database for the weather conditions in past years. The results will help you decide how hot, cold, wet, or windy it might be!

Date:

Astronomy

Jul. 04, 2014 Rise Set
Actual Time 5:27 AM PDT 8:01 PM PDT
Civil Twilight 4:57 AM PDT 8:31 PM PDT
Nautical Twilight 4:20 AM PDT 9:08 PM PDT
Astronomical Twilight 3:38 AM PDT 9:50 PM PDT
Moon 12:15 PM PDT (7/4) No Moon Set
Length of Visible Light 15h 33m
Length of Day
14h 33m
Waxing Crescent, 43% of the Moon is Illuminated
Jul 4
Waxing Crescent
Jul 5
First Quarter
Jul 12
Full
Jul 18
Last Quarter
Jul 26
New

Hourly Weather History & Observations

Time (PDT) Temp. Heat Index Dew Point Humidity Pressure Visibility Wind Dir Wind Speed Gust Speed Precip Events Conditions
12:58 AM 95.2 °F - 46.0 °F 19% 29.77 in 10.0 mi South 13.8 mph - N/A   Clear
1:58 AM 95.0 °F - 47.3 °F 20% 29.79 in 10.0 mi SSE 15.0 mph - N/A   Clear
2:49 AM 91.4 °F 89.9 °F 57.2 °F 31% 29.91 in 7.0 mi South 25.3 mph 36.8 mph N/A   Partly Cloudy
2:58 AM 90.7 °F 90.1 °F 59.4 °F 35% 29.82 in 5.0 mi South 36.8 mph 43.7 mph N/A   Haze
3:03 AM 89.6 °F 89.5 °F 60.8 °F 38% 29.92 in 2.5 mi South 31.1 mph 49.5 mph N/A   Haze
3:08 AM 89.6 °F 89.5 °F 60.8 °F 38% 29.91 in 2.5 mi South 33.4 mph 49.5 mph N/A   Haze
3:13 AM 87.8 °F 87.6 °F 60.8 °F 40% 29.91 in 3.0 mi South 34.5 mph 44.9 mph N/A   Haze
3:58 AM 85.3 °F 85.9 °F 62.1 °F 46% 29.86 in 9.0 mi South 32.2 mph 41.4 mph N/A   Clear
4:58 AM 85.5 °F 85.7 °F 61.5 °F 44% 29.89 in 10.0 mi SE 15.0 mph 19.6 mph N/A   Clear
5:58 AM 84.2 °F 84.8 °F 61.7 °F 47% 29.91 in 10.0 mi SE 15.0 mph 27.6 mph N/A   Clear
6:58 AM 85.3 °F 85.4 °F 60.8 °F 44% 29.92 in 10.0 mi SE 17.3 mph 23.0 mph N/A   Clear
7:58 AM 87.6 °F 87.4 °F 60.3 °F 40% 29.94 in 10.0 mi SSE 15.0 mph - N/A   Clear
8:58 AM 90.9 °F 89.7 °F 58.5 °F 33% 29.95 in 10.0 mi SSE 9.2 mph - N/A   Clear
9:58 AM 92.1 °F 91.1 °F 58.6 °F 32% 29.94 in 10.0 mi ESE 11.5 mph - N/A   Clear
10:58 AM 94.3 °F 93.4 °F 58.3 °F 30% 29.93 in 10.0 mi East 10.4 mph 19.6 mph N/A   Clear
11:58 AM 96.4 °F 95.7 °F 57.9 °F 28% 29.91 in 10.0 mi East 10.4 mph - N/A   Clear
12:58 PM 97.7 °F 96.7 °F 57.7 °F 26% 29.88 in 10.0 mi ESE 12.7 mph - N/A   Clear
1:58 PM 100.0 °F 98.3 °F 55.0 °F 22% 29.85 in 10.0 mi WSW 9.2 mph - N/A   Clear
2:30 PM 100.4 °F 98.8 °F 55.4 °F 22% 29.92 in 10.0 mi SSE 12.7 mph 19.6 mph N/A   Clear
2:58 PM 100.8 °F 99.3 °F 55.4 °F 22% 29.84 in 10.0 mi SE 12.7 mph - N/A   Clear
3:58 PM 100.4 °F 98.4 °F 53.2 °F 21% 29.81 in 10.0 mi SE 12.7 mph - N/A   Partly Cloudy
4:58 PM 101.5 °F 99.4 °F 54.0 °F 20% 29.78 in 10.0 mi ESE 17.3 mph 24.2 mph N/A   Clear
5:44 PM 100.4 °F - 50.0 °F 18% 29.86 in 10.0 mi SSE 12.7 mph 24.2 mph N/A   Clear
5:58 PM 100.8 °F - 50.7 °F 19% 29.78 in 10.0 mi SSE 18.4 mph - N/A   Clear
6:58 PM 100.0 °F - 50.0 °F 18% 29.79 in 10.0 mi SSE 16.1 mph - N/A   Clear
7:58 PM 98.8 °F - 48.9 °F 18% 29.81 in 10.0 mi SSE 20.7 mph - N/A   Mostly Cloudy
8:45 PM 96.8 °F - 51.8 °F 22% 29.91 in 10.0 mi South 10.4 mph - N/A Thunderstorm Thunderstorm
8:50 PM 96.8 °F 94.4 °F 53.6 °F 23% 29.91 in 10.0 mi SSE 16.1 mph 19.6 mph N/A Rain , Thunderstorm Light Thunderstorms and Rain
8:55 PM 95.0 °F 95.2 °F 60.8 °F 32% 29.92 in 9.0 mi SSE 13.8 mph 19.6 mph N/A Rain , Thunderstorm Light Thunderstorms and Rain
8:58 PM 96.3 °F 95.9 °F 59.4 °F 29% 29.84 in 9.0 mi South 13.8 mph - 0.02 in Rain , Thunderstorm Light Thunderstorms and Rain
9:00 PM 95.0 °F 95.2 °F 60.8 °F 32% 29.93 in 9.0 mi SSE 13.8 mph - N/A Rain Light Rain
9:05 PM 93.2 °F 94.9 °F 64.4 °F 38% 29.93 in 9.0 mi SSE 11.5 mph - N/A Rain Light Rain
9:07 PM 91.4 °F 94.0 °F 66.2 °F 43% 29.94 in 7.0 mi SSE 11.5 mph - N/A Rain Light Rain
9:12 PM 89.6 °F 90.1 °F 62.6 °F 40% 29.95 in 5.0 mi South 8.1 mph - N/A Rain , Thunderstorm Rain
9:17 PM 89.6 °F 89.5 °F 60.8 °F 38% 29.95 in 6.0 mi South 16.1 mph 21.9 mph N/A Rain , Thunderstorm Rain
9:22 PM 89.6 °F 88.1 °F 57.2 °F 33% 29.95 in 8.0 mi South 10.4 mph 21.9 mph N/A Rain , Thunderstorm Light Rain
9:27 PM 91.4 °F 89.9 °F 57.2 °F 31% 29.94 in 10.0 mi SSE 15.0 mph 21.9 mph N/A Rain , Thunderstorm Light Thunderstorms and Rain
9:40 PM 89.6 °F 90.1 °F 62.6 °F 40% 29.94 in 10.0 mi SSE 20.7 mph - N/A Thunderstorm Thunderstorm
9:42 PM 87.8 °F 88.5 °F 62.6 °F 43% 29.95 in 10.0 mi South 21.9 mph - N/A Thunderstorm Mostly Cloudy
9:45 PM 87.8 °F 88.5 °F 62.6 °F 43% 29.95 in 10.0 mi South 25.3 mph 29.9 mph N/A Rain , Thunderstorm Light Rain
9:53 PM 87.8 °F 88.5 °F 62.6 °F 43% 29.96 in 10.0 mi South 12.7 mph 29.9 mph N/A Rain Light Rain
9:58 PM 87.4 °F 88.0 °F 62.6 °F 43% 29.88 in 10.0 mi South 16.1 mph - 0.09 in Rain Light Rain
9:59 PM 86.0 °F 88.2 °F 66.2 °F 51% 29.96 in 10.0 mi South 17.3 mph 24.2 mph N/A Rain Light Rain
10:13 PM 84.2 °F 85.0 °F 62.6 °F 48% 29.99 in 10.0 mi SSW 5.8 mph - N/A   Partly Cloudy
10:46 PM 84.2 °F 85.6 °F 64.4 °F 51% 30.01 in 10.0 mi South 10.4 mph - N/A Rain Light Rain
10:58 PM 84.0 °F 84.9 °F 63.0 °F 49% 29.95 in 10.0 mi SSE 8.1 mph - 0.00 in   Light Drizzle
10:59 PM 84.2 °F 85.6 °F 64.4 °F 51% 30.02 in 10.0 mi SSE 4.6 mph - N/A   Partly Cloudy
11:07 PM 84.2 °F 86.6 °F 66.2 °F 55% 30.02 in 10.0 mi Calm Calm - N/A   Scattered Clouds
11:09 PM 84.2 °F 85.6 °F 64.4 °F 51% 30.02 in 10.0 mi Variable 1.2 mph - N/A Rain Light Rain
11:22 PM 84.2 °F 85.6 °F 64.4 °F 51% 30.02 in 10.0 mi SW 8.1 mph - N/A   Partly Cloudy
11:58 PM 84.2 °F 85.2 °F 63.1 °F 49% 29.94 in 10.0 mi West 9.2 mph - 0.00 in   Clear